sat.trackr.live / text

‹ back to catalog

STARLINK-11673 [DTC]

NORAD 64318 · 2025-124B

PAYLOAD ACTIVE UNKNOWN

§ Identity

Operator
Country
US
Launch date
2025-06-10
Launch site
AFETR
Launch vehicle
Mass (kg)
RCS (m²)

Purposes: comms

External: N2YO · Heavens-Above · Gunter

§ Orbital elements

Epoch: 2026-09-20T22:45:53.925984Z

Period
91.67 min
Inclination
42.9996°
Eccentricity
0.0001445
Mean motion
15.70894879 rev/d
Perigee alt
355.4 km
Apogee alt
357.3 km
Semi-major
6,734.5 km
B*
1.5269e-3
RAAN
292.2531°
Arg perigee
239.4403°
Mean anomaly
120.6322°
Rev number
7,354

§ Raw data

STARLINK-11673 [DTC]1 64318U 25124B   26263.94854081  .00200735  00000+0  15269-2 0  99952 64318  42.9996 292.2531 0001445 239.4403 120.6322 15.70894879 73549

JSON: /api/v1/satellites/64318 · /tle

For live sub-satellite position, see the globe view (requires WebGL).

§ Visibility from observer

Set your observer location to see the next 7 days of passes ≥ 10°. The values pass through the URL so the page stays shareable.

No JS? Fill the form by hand. The geolocation button needs JavaScript.